Warning: Javascript must be enabled to use all the features on this page!


Page Loading - Please Wait...

Click to hideNews Bulletins

Peak Streamflow for the Nation

USGS 09064000 HOMESTAKE CREEK AT GOLD PARK, CO.

Eagle County, Colorado
Hydrologic Unit Code 14010003
Latitude  39°24'20", Longitude 106°25'58" NAD27
Drainage area 35.6  square miles
Gage datum 9,200 feet above NGVD29
Output formats
Table
Graph
Tab-separated file
peakfq (watstore) format
Reselect output format
Water
Year
Date Gage
Height
(feet)
Stream-
flow
(cfs)
1948 1948-06-02 5.98 906
1949 1949-06-16 6.10 910
1950 1950-06-16 4.95 570
1951 1951-06-21 6.05 915
1952 1952-06-10 6.34 1,030
1953 1953-06-13 6.84 1,080
1954 1954-05-19 5.00 465
1973 1973-06-27   1801,2,6
1974 1974-05-27   84.01,6
1975 1975-07-04 5.56 5626
1976 1976-06-05 5.132 2706
1977 1977-07-24 4.98 2306
1978 1978-06-15 5.762 6396
1979 1979-06-13 5.60 5136
1980 1980-06-10 5.33 3626
1981 1981-06-09 5.38 4296
1982 1982-06-28 4.992 2176
1983 1983-07-30 5.69 6116
1984 1984-06-30 6.21 9306
1985 1985-06-08 5.59 4706
1986 1986-06-04 5.50 5306
1987 1987-06-08 5.30 3256
1988 1988-06-04 5.16 2576
1989 1989-07-12 4.82 1376
1990 1990-06-07 5.19 2856
1991 1991-06-11 4.98 2016
1992 1992-04-29 4.63 1036
1993 1993-06-14 5.22 3586
1994 1994-05-17 4.912 1836
1995 1995-06-18   4651,6
1996 1996-06-21 5.252 4106
1997 1997-06-01 5.61 8026
1998 1998-07-01 5.40 5136
1999 1999-06-23 5.242 3376
2000 2000-06-19 5.56 6716
2001 2001-06-25 4.89 1966
2002 2002-05-15 4.74 1186
2003 2003-05-29 5.54 6156
2004 2004-06-07 4.78 1326
2005 2005-05-22 5.18 3186
2006 2006-05-23 5.14 2946
2007 2007-04-30 4.79 1356
2008 2008-06-29 5.92 1,0906
2009 2009-06-24 5.37 4126
2010 2010-06-05 6.12 1,4806
2011 2011-07-07 6.03 1,2906
2012 2012-05-23 5.11 2786
2013 2013-06-10 5.29 3826
2014 2014-05-29 5.42 4876
2015 2015-06-17 5.37 4446
2016 2016-06-05 6.03 8066
2017 2017-06-22 5.61 6036
2018 2018-05-25 4.81 1186
2019 2019-06-30 6.15 1,5506
2020 2020-06-01 5.22 2626
2021 2021-08-03 5.66 6036
?
  Peak Gage-Height Qualification Codes.
?
  Peak Streamflow Qualification Codes.